Location: Newark
(47.5833°N, 8.1500°E)
Time: 17:35:58
(UTC+00:00)

Transit 2A - Pass Details

Date: 31 October 2020
Orbit: 595 x 964 km, 66.7° (Epoch: 01 December)

Event Time Altitude Azimuth Distance (km) Brightness Sun altitude
Rises 06:52:54 0° 327° (NNW) 3,518 8.9 5.7°
Reaches altitude 10° 06:55:52 10° 338° (NNW) 2,519 8.2 6.1°
Maximum altitude 07:00:51 28° 37° (NE) 1,478 7.7 6.8°
Drops below altitude 10° 07:05:23 10° 97° (E) 2,293 9.9 7.5°
Sets 07:07:58 0° 109° (ESE) 3,150 11.1 7.9°
